Location: Bryzozowice
(50.3667°N, 18.9667°E)
Time: 20:01:10
(UTC+00:00)

Daily predictions for brighter satellites

Satellite Brightness Start Highest point End
(mag) Time Altitude Azimuth Time Altitude Azimuth Time Altitude Azimuth
Meteor 1-24 Rocket 3.6 15:48:40 10° S 15:54:00 82° E 15:59:29 10° NNE
Cosmos-2242 4.0 15:50:27 10° N 15:54:07 26° ENE 15:57:45 10° SE
Cosmos 2219 3.8 15:49:35 10° S 15:54:44 39° ESE 15:59:56 10° NE
Cosmos 1271 Rocket 2.6 15:51:01 10° S 15:54:46 87° ESE 15:58:34 10° NNE
Cosmos 1812 Rocket 3.6 15:51:19 10° N 15:55:47 61° ENE 16:00:12 10° SSE
CZ-4 R/B 2.6 15:53:50 10° ESE 15:57:04 23° ENE 16:00:22 10° N
Cosmos 2297 Rocket 3.0 15:58:45 10° SSE 16:03:44 33° ESE 16:08:44 10° NE
Cosmos 1980 3.7 15:58:42 10° NNW 16:04:26 86° ENE 16:10:08 10° SSE
Cosmos 2251 Rocket 4.3 16:02:46 10° N 16:07:28 31° NE 16:12:10 10° ESE
YAOGAN 1 3.6 16:04:32 10° ESE 16:08:03 25° ENE 16:11:34 10° N
Cosmos 2219 Rocket 3.8 16:03:15 10° NW 16:08:33 41° WSW 16:13:48 10° S
NOSS 2-1 (E) 4.3 16:04:39 10° NW 16:09:47 75° NE 16:17:00 10° SE
H-2A R/B 3.9 16:10:09 10° NE 16:10:31 10° NE 16:10:53 10° NE
Meteor 2-10 Rocket 4.0 16:07:01 10° N 16:11:58 37° ENE 16:16:42 10° SE
SL-14 R/B 3.4 16:09:38 10° SSW 16:13:38 82° W 16:17:36 10° N
Cosmos 1340 Rocket 2.9 16:10:05 10° NNW 16:14:04 83° W 16:18:03 10° S
H-2A R/B 3.3 16:11:51 10° S 16:15:41 65° W 16:19:35 10° NNW
Cosmos 2227 Rocket 2.8 16:11:23 10° S 16:16:31 37° ESE 16:21:41 10° NE
Starlink T 3.1 16:16:08 10° W 16:19:12 57° N 16:21:44 14° ENE
USA 32 4.3 16:14:19 10° SSE 16:19:19 48° E 16:24:21 10° NNE
FengYun 1-2 T 4.3 16:13:49 10° SE 16:19:20 58° ENE 16:24:54 10° N
Cosmos 2184 Rocket 4.4 16:14:14 10° SSW 16:20:21 68° WNW 16:26:32 10° N
Starlink N 3.2 16:17:49 10° W 16:20:53 56° N 16:23:21 15° ENE
Cosmos 724 4.5 16:15:26 10° SSW 16:21:15 58° ESE 16:27:01 10° NE
Cosmos 1242 Rocket 3.3 16:18:22 10° SSW 16:21:51 55° WNW 16:25:23 10° N
Starlink Q 3.2 16:19:46 10° W 16:22:50 56° N 16:25:13 15° ENE
ERBS 2.6 16:19:58 10° SW 16:23:13 52° SE 16:25:46 15° ENE
Starlink P 3.2 16:21:32 10° W 16:24:37 55° N 16:26:55 16° ENE
Cosmos 1602 Rocket 3.6 16:20:28 10° SSW 16:24:51 83° W 16:29:14 10° N
Cosmos 1125 Rocket 3.7 16:19:58 10° SSW 16:25:10 78° WNW 16:30:26 10° NNE
Starlink U 3.2 16:23:18 10° W 16:26:23 55° N 16:28:37 17° ENE
CZ-4B R/B 4.1 16:25:50 10° NNW 16:27:41 15° WNW 16:29:30 10° W
Starlink B 3.2 16:25:06 10° W 16:28:10 54° N 16:30:21 17° ENE
Cosmos 2154 Rocket 4.1 16:22:48 10° S 16:29:05 87° W 16:35:22 10° N
Cosmos 1943 4.5 16:25:41 10° N 16:29:53 21° NE 16:32:45 15° ENE
Envisat 3.1 16:28:09 10° SSE 16:33:15 82° WSW 16:38:23 10° NNW
COSMO-SKYMED 1 2.9 16:32:29 10° NNE 16:36:40 45° E 16:40:50 10° S
Cosmos 1953 Rocket 4.1 16:33:43 10° SSE 16:37:53 39° E 16:42:04 10° NNE
Starlink D 3.3 16:36:03 10° W 16:39:09 52° N 16:40:54 22° ENE
Starlink S 3.3 16:37:56 10° W 16:41:01 52° N 16:42:42 23° ENE
Cosmos 1758 Rocket 3.4 16:38:06 10° S 16:42:22 69° E 16:46:41 10° NNE
Starlink C 3.3 16:39:45 10° W 16:42:50 51° N 16:44:27 24° ENE
Starlink E 3.3 16:41:38 10° W 16:44:44 51° N 16:46:16 25° ENE
Cosmos 44 3.7 16:42:16 10° S 16:46:29 38° ESE 16:48:54 21° ENE
Starlink J 3.3 16:43:31 10° W 16:46:37 51° N 16:48:04 26° ENE
Starlink V 3.3 16:45:23 10° W 16:48:29 51° N 16:49:52 27° ENE
USA 267 3.3 16:42:58 15° ENE 16:48:36 79° NNW 16:55:08 10° WSW
CSL-04 Debris 4.2 16:43:20 10° SE 16:48:36 58° ENE 16:53:56 10° N
YAOGAN 6 2.8 16:45:07 10° S 16:48:47 74° WSW 16:52:27 10° NNW
Cosmos 1703 3.8 16:46:24 10° SSE 16:50:04 37° E 16:53:17 13° NNE
Starlink H 3.3 16:47:18 10° W 16:50:23 50° N 16:51:42 29° ENE
Cosmos 2366 rocket 4.1 16:45:44 10° SSE 16:51:41 51° E 16:57:46 10° NNE
Starlink F 3.3 16:49:11 10° W 16:52:17 50° N 16:53:31 30° ENE
Starlink G 3.3 16:51:05 10° W 16:54:10 50° N 16:55:20 31° NE
Starlink L 3.3 16:52:59 10° W 16:56:04 50° N 16:57:09 32° NE
Cosmos 1939 Rocket 3.0 16:52:28 10° SE 16:56:15 48° ENE 17:00:07 10° N
Cosmos 1626 4.2 16:54:20 10° SW 16:57:36 29° WNW 17:00:53 10° N
Starlink A 3.3 16:54:53 10° W 16:57:59 50° N 16:58:59 34° NE
Starlink R 3.3 16:56:48 10° W 16:59:53 50° N 17:00:50 35° NE
SKYMED 3 4.5 16:56:14 10° NNE 17:00:37 77° ESE 17:04:57 10° S
Starlink K 3.3 16:58:41 10° W 17:01:47 50° N 17:02:38 37° NE
Starlink M 3.3 17:00:34 10° WNW 17:03:39 50° N 17:04:26 38° NE
Cosmos 2237 Rocket 3.7 17:00:04 10° NW 17:05:14 38° WSW 17:10:22 10° S
Cosmos 1825 Rocket 3.6 17:01:49 10° SSW 17:06:10 79° W 17:10:31 10° N
Okean-O 3.9 17:04:15 10° S 17:08:28 43° W 17:12:44 10° NNW
ATLAS CENTAUR R/B 4.4 17:02:03 10° W 17:08:31 65° N 17:21:12 20° ENE
Starlink AR 3.0 17:06:38 10° WNW 17:09:03 42° N 17:09:03 42° N
CSL-04 Rocket 3.6 17:06:18 10° SSE 17:11:49 85° ENE 17:17:25 10° NNW
ATLAS 5 CENTAUR R/B 3.6 17:10:36 10° WNW 17:14:14 21° NNW 17:17:00 15° NNE
Starlink AS 3.1 17:12:42 10° WNW 17:15:33 47° N 17:15:36 47° N
Starlink BA 3.2 17:12:56 10° WNW 17:15:47 47° N 17:15:49 47° N
USA 116 3.2 17:16:03 54° ESE 17:16:03 54° ESE 17:18:58 10° S
Starlink AU 3.2 17:13:10 10° WNW 17:16:00 47° N 17:16:02 47° N
Cosmos 1455 2.7 17:12:18 10° NNW 17:16:05 61° W 17:19:49 10° S
Starlink AT 3.2 17:13:22 10° WNW 17:16:13 47° N 17:16:14 47° N
Starlink BB 3.2 17:13:35 10° WNW 17:16:27 47° N 17:16:27 47° N
Ariane Rocket 3.2 17:11:50 10° SE 17:16:39 46° ENE 17:21:32 10° N
Starlink BC 3.2 17:13:50 10° WNW 17:16:41 47° N 17:16:41 47° N
Cosmos 1727 Rocket 3.9 17:10:35 10° N 17:16:47 72° ENE 17:22:56 10° SSE
Starlink BK 3.2 17:14:03 10° WNW 17:16:54 47° N 17:16:54 47° N
Starlink AY 3.2 17:14:17 10° WNW 17:17:07 47° N 17:17:07 47° N
Shenzhou-11 Module 4.1 17:15:37 10° SSW 17:17:16 15° S 17:17:16 15° S
Starlink AW 3.2 17:14:31 10° WNW 17:17:20 47° N 17:17:20 47° N
Starlink BJ 3.2 17:14:44 10° WNW 17:17:33 47° N 17:17:33 47° N
Starlink AV 3.2 17:14:57 10° WNW 17:17:46 47° N 17:17:46 47° N
Starlink BD 3.2 17:15:11 10° WNW 17:17:59 47° N 17:17:59 47° N
Starlink BE 3.2 17:15:23 10° WNW 17:18:13 47° N 17:18:13 47° N
Starlink BM 3.2 17:15:38 10° WNW 17:18:25 47° N 17:18:25 47° N
Starlink AQ 3.2 17:15:37 10° WNW 17:18:26 47° N 17:18:26 47° N
CZ-2D R/B 3.1 17:14:44 10° SSE 17:18:34 83° ENE 17:22:27 10° NNW
Starlink AX 3.2 17:15:52 10° WNW 17:18:38 47° N 17:18:38 47° N
Starlink BH 3.2 17:16:05 10° WNW 17:18:51 47° N 17:18:51 47° N
Starlink AZ 3.2 17:16:19 10° WNW 17:19:04 47° N 17:19:04 47° N
Starlink BG 3.2 17:16:32 10° WNW 17:19:16 47° N 17:19:16 47° N
Starlink BF 3.2 17:16:45 10° WNW 17:19:30 47° N 17:19:30 47° N
Starlink BL 3.2 17:16:58 10° WNW 17:19:44 47° N 17:19:44 47° N
Starlink AH 3.2 17:17:13 10° WNW 17:19:55 47° N 17:19:55 47° N
Starlink AC 3.3 17:17:27 10° WNW 17:20:09 47° N 17:20:09 47° N
Starlink X 3.3 17:17:40 10° WNW 17:20:22 47° N 17:20:22 47° N
Starlink AE 3.3 17:17:51 10° WNW 17:20:37 47° N 17:20:37 47° N
ATLAS 5 CENTAUR R/B 3.4 17:16:50 10° NW 17:20:48 53° NE 17:28:17 21° ESE
Starlink Z 3.3 17:18:08 10° WNW 17:20:48 46° N 17:20:48 46° N
Starlink AK 3.3 17:18:20 10° WNW 17:21:01 46° NNW 17:21:01 46° NNW
Starlink AL 3.3 17:18:34 10° WNW 17:21:14 46° NNW 17:21:14 46° NNW
Starlink AD 3.3 17:18:47 10° WNW 17:21:27 46° NNW 17:21:27 46° NNW
Starlink Y 3.3 17:19:15 10° WNW 17:21:53 46° NNW 17:21:53 46° NNW
Starlink AG 3.3 17:19:29 10° WNW 17:22:06 46° NNW 17:22:06 46° NNW
Starlink W 3.3 17:19:40 10° WNW 17:22:20 47° NNW 17:22:20 47° NNW
Starlink AJ 3.3 17:19:55 10° WNW 17:22:31 46° NNW 17:22:31 46° NNW
Starlink AM 3.4 17:20:22 10° WNW 17:22:58 46° NNW 17:22:58 46° NNW
Starlink AP 3.4 17:20:35 10° WNW 17:23:10 46° NNW 17:23:10 46° NNW
Starlink AA 3.4 17:20:48 10° WNW 17:23:23 45° NNW 17:23:23 45° NNW
Starlink AF 3.4 17:21:02 10° WNW 17:23:36 45° NNW 17:23:36 45° NNW
Starlink AB 3.4 17:21:16 10° WNW 17:23:50 45° NNW 17:23:50 45° NNW
Starlink AN 3.4 17:21:30 10° WNW 17:24:03 45° NNW 17:24:03 45° NNW
SKYMED 2 4.0 17:20:27 10° N 17:24:47 63° WNW 17:29:04 10° SSW
Cosmos 2221 2.7 17:21:02 10° N 17:25:04 46° ENE 17:25:04 46° ENE
SL-8 Rocket 4.1 17:20:07 10° SSW 17:26:26 78° W 17:32:44 10° N
SL-16 R/B 2.7 17:23:39 10° NW 17:29:16 62° WSW 17:34:50 10° SSE
ISS -3.6 17:26:47 10° WSW 17:30:00 60° S 17:30:00 60° S
ATLAS CENTAUR R/B 1.2 17:26:40 10° NW 17:30:47 78° SW 17:32:07 39° SSE
CZ-4 R/B 2.6 17:27:58 10° S 17:31:52 43° W 17:35:52 10° NNW
Meteor 1-27 4.0 17:27:55 10° N 17:33:31 74° ENE 17:39:04 10° SSE
Meteor 1-11 4.1 17:32:04 10° S 17:37:39 73° E 17:43:14 10° NNE
Cosmos 2219 4.2 17:33:30 10° WSW 17:38:51 44° NW 17:43:42 13° NNE
Cosmos 2082 3.6 17:33:56 10° SSW 17:39:34 89° WNW 17:42:52 26° NNE
Cosmos 1603 3.7 17:36:20 10° NNW 17:41:59 59° NE 17:43:21 46° ESE
YAOGAN 1 3.7 17:39:49 10° S 17:43:56 43° W 17:48:06 10° NNW
Cosmos 614 Rocket 4.0 17:39:56 10° NNW 17:45:02 53° ENE 17:45:06 53° ENE
Cosmos 2297 Rocket 2.9 17:42:05 10° SW 17:47:35 50° NW 17:51:50 17° NNE
H-2A R/B 2.4 17:49:40 45° NE 17:49:40 45° NE 17:53:44 10° N
Meteor 2-2 Rocket 4.2 17:43:51 10° N 17:49:56 72° ENE 17:55:55 10° SSE
Cosmos 2251 Rocket 4.4 17:44:53 10° NNW 17:50:00 50° WSW 17:55:07 10° S
ADEOS Rocket 3.2 17:44:12 10° NNE 17:50:48 68° ESE 17:58:04 10° S
DMSP B5D1-3 4.4 17:46:49 14° NNE 17:51:20 88° WNW 17:56:27 10° SSW
Cosmos 1356 Rocket 4.2 17:50:23 10° NNW 17:54:18 50° W 17:58:15 10° S
Cosmos 2263 Rocket 4.2 17:54:00 10° SSE 17:54:46 14° SSE 17:54:46 14° SSE
ERBS 4.0 17:56:33 10° W 17:58:46 30° NW 17:58:46 30° NW
Cosmos 1821 Rocket 3.9 17:53:26 10° S 17:59:43 67° E 18:05:58 10° NNE
SL-8 R/B 3.8 17:55:16 10° WSW 17:59:55 62° S 17:59:55 62° S
Cosmos 2227 Rocket 3.1 17:55:05 10° SW 18:00:30 45° NW 18:04:16 19° NNE
ARGOS 3.4 18:02:01 49° NNE 18:02:01 49° NNE 18:06:20 10° N
Cosmos 1140 Rocket 4.2 17:59:37 10° NNW 18:03:17 39° NNE 18:03:17 39° NNE
IRS-1A Rocket 4.3 18:00:51 10° SSE 18:06:37 80° WSW 18:12:18 10° NNW
NOSS 3-3 (A) 4.4 18:05:39 10° NW 18:12:54 68° NE 18:14:25 56° E
NOSS 3-3 (C) 4.4 18:05:45 10° NW 18:13:00 67° NE 18:14:29 56° E
MOS 1 4.2 18:11:18 36° SSE 18:13:46 87° WSW 18:19:31 10° NNW
Cosmos 1943 3.1 18:09:12 10° NNW 18:14:37 76° NNE 18:14:37 76° NNE
Cosmos 2123 Rocket 3.9 18:16:06 10° N 18:22:05 73° NE 18:22:05 73° NE
Cosmos 44 4.3 18:23:27 10° WSW 18:27:21 38° NW 18:27:21 38° NW
CZ-2C R/B 3.8 18:32:42 49° NNW 18:32:42 49° NNW 18:36:48 10° NNW
USA 267 3.6 18:30:19 48° NNE 18:31:17 52° N 18:37:34 10° W
Cosmos 407 Rocket 4.0 18:28:14 10° NNW 18:32:31 57° NW 18:32:31 57° NW
BREEZE-M DEB (TANK) 4.1 18:31:40 10° W 18:43:09 68° SW 18:43:09 68° SW
ATLAS 5 CENTAUR R/B 4.2 18:56:40 10° NW 18:58:33 18° NNW 18:58:33 18° NNW
H-2A R/B 4.2 19:30:16 21° WNW 19:30:16 21° WNW 19:32:45 10° NW
